Location: Izdebno
(52.6670°N, 16.2170°E)
Time: 11:15:40
(UTC+01:00)

Transit 2A - Pass Details

Date: 05 February 2023
Orbit: 591 x 964 km, 66.7° (Epoch: 21 March)

Event Time Altitude Azimuth Distance (km) Brightness Sun altitude
Rises 16:15:18 0° 191° (S) 3,008 9.8 3.5°
Reaches altitude 10° 16:17:37 10° 184° (S) 2,150 8.9 3.2°
Maximum altitude 16:22:09 39° 116° (ESE) 1,118 6.7 2.6°
Drops below altitude 10° 16:27:11 10° 49° (NE) 2,394 7.9 1.9°
Sets 16:29:53 0° 42° (NE) 3,394 8.7 1.6°
